sat.trackr.live / text

‹ back to catalog

STARLINK-5233

NORAD 54160 · 2022-141D

PAYLOAD ACTIVE UNKNOWN

§ Identity

Operator
Country
US
Launch date
2022-10-28
Launch site
AFWTR
Launch vehicle
Mass (kg)
RCS (m²)

Purposes: comms

External: N2YO · Heavens-Above · Gunter

§ Orbital elements

Epoch: 2026-09-20T05:18:44.595072Z

Period
94.01 min
Inclination
53.1598°
Eccentricity
0.0001443
Mean motion
15.31703309 rev/d
Perigee alt
469.7 km
Apogee alt
471.7 km
Semi-major
6,848.9 km
B*
2.1764e-5
RAAN
164.1395°
Arg perigee
97.7837°
Mean anomaly
262.3329°
Rev number
21,587

§ Raw data

STARLINK-52331 54160U 22141D   26263.22134948  .00000310  00000+0  21764-4 0  99952 54160  53.1598 164.1395 0001443  97.7837 262.3329 15.31703309215873

JSON: /api/v1/satellites/54160 · /tle

For live sub-satellite position, see the globe view (requires WebGL).

§ Visibility from observer

Set your observer location to see the next 7 days of passes ≥ 10°. The values pass through the URL so the page stays shareable.

No JS? Fill the form by hand. The geolocation button needs JavaScript.